This is the latest recevied weather packets stored in our database for station/object HB9FHL-13. If no packets are shown the sender has not sent any weather packets the latest 10 day(s).
| Time | Temp. | Humidity | Pressure | Rain* | Wind** | Luminosity | Snow |
|---|---|---|---|---|---|---|---|
| 1777194650 | 14.44° C | - | 1020.1 hPa | 0 mm | - | - | - |
| 1777194349 | 13.89° C | - | 1021 hPa | 0 mm | - | - | - |
| 1777194049 | 15° C | - | 1025.7 hPa | 0 mm | - | - | - |
| 1777193748 | 14.44° C | - | 1023 hPa | 0 mm | - | - | - |
| 1777193448 | 15° C | - | 1019.9 hPa | 0 mm | - | - | - |
| 1777193147 | 13.33° C | - | 1023.2 hPa | 0 mm | - | - | - |
| 1777192847 | 13.33° C | - | 1026 hPa | 0 mm | - | - | - |
| 1777192546 | 15° C | - | 1018.6 hPa | 0 mm | - | - | - |
| 1777192246 | 15° C | - | 1022.2 hPa | 0 mm | - | - | - |
| 1777191948 | 14.44° C | - | 1025 hPa | 0 mm | - | - | - |
| 1777191645 | 13.89° C | - | 1019.5 hPa | 0 mm | - | - | - |
| 1777191344 | 14.44° C | - | 1017.1 hPa | 0 mm | - | - | - |
| 1777191046 | 14.44° C | - | 1024 hPa | 0 mm | - | - | - |
| 1777190744 | 14.44° C | - | 1022 hPa | 0 mm | - | - | - |
| 1777190443 | 15.56° C | - | 1009.4 hPa | 0 mm | - | - | - |
| 1777190143 | 15.56° C | - | 1024.1 hPa | 0 mm | - | - | - |
| 1777189842 | 14.44° C | - | 1025.6 hPa | 0 mm | - | - | - |
| 1777189542 | 14.44° C | - | 1024.7 hPa | 0 mm | - | - | - |
| 1777189241 | 14.44° C | - | 1022.4 hPa | 0 mm | - | - | - |
| 1777188940 | 15° C | - | 1024.6 hPa | 0 mm | - | - | - |
| 1777188640 | 15.56° C | - | 1032.2 hPa | 0 mm | - | - | - |
| 1777188339 | 16.11° C | - | 1015 hPa | 0 mm | - | - | - |
| 1777188039 | 14.44° C | - | 1024.4 hPa | 0 mm | - | - | - |
| 1777187738 | 15° C | - | 1025.9 hPa | 0 mm | - | - | - |
| 1777187438 | 14.44° C | - | 1026.3 hPa | 0 mm | - | - | - |
* Rain since midnight (hover to see other rain measurements)
** Current wind speed in m/s (hover to see current wind gust speed)